Theta_e
344 345 345 346 347 348 348 348 347 347 346 344 343 342 341 341 340 340 339 339 339 338 338 338 337 335 335 336 336 336 336 336 336 337 339 338 336 337 340 339 339 339 338 337 337 337 337 338 339 340 342 343 342 342 344 344 341 341 340 339 338 338 335 333 333 331 330 332 331 330 332 331 329 328 328 328 327 328 328 327 327 327 327 327 327
343 343 344 344 346 346 347 347 347 347 347 346 344 343 342 341 341 341 340 340 339 338 338 337 336 335 334 335 336 336 336 335 335 337 338 337 334 335 336 336 337 337 337 336 336 336 336 337 338 338 340 342 341 341 343 345 346 346 345 342 340 342 341 338 337 337 335 334 334 333 333 332 331 330 329 329 329 329 329 329 329 328 328 327 328
348 343 343 343 344 345 346 347 347 347 347 347 346 345 343 342 341 341 340 340 339 338 337 337 335 334 334 335 336 336 336 335 335 335 336 335 333 333 334 335 336 337 337 336 336 336 337 337 338 338 338 338 340 341 340 341 343 345 346 343 340 340 340 338 338 337 336 334 334 334 334 334 333 331 331 330 330 330 330 331 331 331 331 331 330
353 347 343 343 344 344 345 346 346 346 346 347 347 346 346 345 343 340 339 340 339 338 336 336 335 334 334 335 335 336 336 335 334 333 333 332 331 331 333 334 335 335 335 335 336 338 340 340 339 339 338 337 338 338 337 336 337 337 338 338 337 337 337 336 336 336 336 335 334 333 334 334 332 331 331 331 330 330 330 331 331 331 331 331 331
356 352 345 343 345 344 344 345 345 346 346 346 347 346 348 349 346 341 339 339 339 337 336 336 335 334 334 335 335 335 335 334 333 332 332 332 332 331 331 332 334 334 334 335 335 336 337 338 338 336 335 335 334 334 334 333 334 334 334 335 335 335 335 335 335 335 335 334 333 333 333 333 332 331 331 331 330 330 330 330 330 330 330 330 330
357 355 349 344 344 345 344 345 345 345 345 345 347 347 349 351 350 344 340 338 338 337 336 335 335 335 334 334 335 335 334 334 333 332 332 331 331 332 332 332 333 333 334 334 334 333 333 334 334 333 333 332 332 332 332 331 332 332 332 333 333 333 333 333 333 333 333 332 332 332 332 332 331 330 329 330 330 330 330 330 330 331 331 331 331
358 357 352 347 345 345 345 345 344 345 345 345 347 349 349 351 352 348 343 339 338 337 335 334 334 334 334 334 334 334 333 333 332 331 331 330 331 332 333 333 333 334 334 333 333 333 332 332 332 332 332 332 332 332 333 333 332 331 332 332 332 333 333 333 334 334 335 335 334 332 332 332 332 331 331 331 331 332 332 333 332 332 333 334 335
357 356 353 349 347 345 345 345 344 345 345 345 346 349 350 351 352 350 346 342 340 338 336 335 333 333 334 333 333 334 333 332 332 331 330 329 329 330 332 333 334 333 333 332 333 333 333 332 332 332 332 332 332 332 332 333 332 332 332 332 333 333 334 334 336 337 340 342 340 337 334 333 332 332 331 332 334 334 333 335 338 337 340 344 344
358 356 353 349 347 347 346 345 345 345 345 345 346 348 349 350 350 349 347 345 343 341 339 338 335 333 333 333 333 333 333 332 331 330 330 328 328 328 330 332 332 333 332 332 332 333 332 332 332 331 331 331 331 331 331 331 332 332 332 332 333 335 336 335 335 337 341 345 345 342 339 339 336 333 335 340 344 344 341 345 349 349 350 352 351
357 356 353 348 347 347 346 346 345 345 345 346 346 346 347 348 348 348 347 346 346 344 343 342 340 336 333 332 333 332 332 332 331 330 329 328 328 327 328 329 331 331 332 332 332 332 332 332 331 330 329 330 330 330 331 331 331 331 332 332 334 336 338 339 340 340 344 347 348 348 350 350 346 341 344 348 351 352 352 353 355 354 353 353 353
356 353 351 349 348 347 347 346 346 345 345 346 346 346 346 347 347 347 348 347 347 347 345 345 344 342 338 334 332 332 332 331 331 330 329 328 328 327 328 328 329 330 330 331 331 331 330 330 330 329 329 329 330 330 330 331 330 331 331 332 333 335 338 341 343 344 345 346 349 352 354 354 350 347 350 352 352 353 355 355 355 355 355 355 355
355 352 351 351 349 347 347 347 347 346 345 345 346 346 346 347 347 348 348 347 347 347 347 346 346 346 345 340 336 334 332 332 331 330 329 328 328 328 328 328 328 329 329 329 329 329 330 329 329 329 329 329 330 330 330 330 329 330 331 331 332 334 336 338 340 342 343 344 348 352 355 355 352 349 352 355 355 355 356 356 355 355 355 356 356
355 353 352 351 349 347 347 347 347 347 346 346 346 346 346 347 347 347 347 347 347 347 347 348 347 347 348 347 344 340 336 333 331 330 330 329 329 329 329 329 329 329 329 329 329 329 329 329 329 329 329 329 329 330 330 330 330 330 330 331 333 334 335 337 338 340 341 342 344 349 353 354 351 348 351 356 357 356 356 356 356 356 356 355 355
356 353 351 349 348 347 348 347 347 347 347 346 345 346 346 346 347 347 347 347 348 347 347 348 348 348 348 348 347 345 343 338 333 330 330 330 329 330 329 329 330 330 330 329 329 329 329 329 329 329 329 329 329 329 329 330 330 331 332 332 332 334 335 337 338 339 340 342 343 346 350 352 352 351 353 356 357 356 356 356 356 356 355 355 354
357 354 351 348 347 347 347 347 348 347 347 347 346 346 346 346 347 347 348 348 348 348 348 348 348 348 348 348 348 347 346 343 337 331 329 329 330 330 331 331 331 331 330 330 330 330 330 329 329 329 329 329 329 330 330 330 331 335 339 338 335 336 338 339 340 340 342 344 345 347 350 352 354 355 355 355 357 357 357 356 356 356 355 355 355
356 353 350 348 348 347 347 348 347 348 348 348 347 346 346 347 347 347 348 348 348 348 348 348 348 348 347 348 348 348 347 345 341 335 332 331 332 332 332 332 333 332 331 331 330 330 330 330 330 330 329 329 330 330 330 331 333 337 342 344 343 345 347 347 346 346 345 346 348 350 352 354 355 356 355 356 357 356 356 355 356 356 356 355 355
354 352 349 347 348 347 347 347 348 348 348 348 348 347 346 346 347 347 347 348 349 349 348 347 348 348 348 348 348 348 348 347 344 341 337 336 336 335 335 335 335 334 333 332 331 331 331 330 330 330 330 330 330 330 330 332 334 337 342 344 346 350 353 354 354 353 351 348 349 351 353 355 357 356 356 356 356 356 356 356 356 356 355 354 354
351 349 347 347 347 347 347 347 347 348 348 348 347 347 347 347 347 347 347 348 348 349 348 348 347 347 347 348 348 348 348 347 346 344 342 341 340 340 341 341 340 338 336 334 333 332 332 331 331 331 331 330 330 331 331 333 335 338 342 344 347 353 356 357 358 357 355 352 351 353 355 357 358 357 357 356 357 357 357 356 355 353 352 351 349
348 347 346 347 347 347 347 347 348 348 348 348 347 347 347 347 346 347 347 347 348 348 348 348 347 347 347 347 347 348 348 349 348 347 346 346 346 346 348 348 347 343 340 338 336 334 333 333 332 331 331 331 331 332 333 335 336 338 342 346 351 356 358 358 358 358 358 358 358 358 360 360 358 357 356 357 357 356 355 354 351 347 346 345 344
346 346 346 347 347 347 347 347 347 348 348 348 347 347 347 347 347 347 347 347 347 348 349 349 348 348 348 348 349 349 349 350 350 350 350 350 351 352 353 353 352 348 345 345 343 340 337 336 333 331 330 331 333 334 336 337 338 340 342 346 352 357 358 358 358 358 359 359 360 360 360 359 357 357 357 357 356 354 352 349 343 341 343 344 344
347 347 347 347 347 347 347 347 347 348 348 348 347 348 347 347 348 347 348 348 348 347 349 351 352 352 352 353 354 353 352 352 352 352 353 353 354 355 356 356 354 352 351 350 349 347 344 340 336 333 333 335 337 338 339 339 340 343 343 343 349 355 356 357 357 358 357 358 359 359 358 357 357 356 356 355 353 351 349 345 341 340 343 344 342
348 347 347 347 347 347 347 347 347 347 348 348 347 348 348 348 349 350 351 351 352 351 350 352 355 357 358 357 357 356 355 354 354 355 356 356 357 357 357 357 356 355 355 354 353 351 349 346 345 342 339 340 341 341 342 343 344 344 342 342 346 352 354 355 356 357 357 359 359 358 357 357 356 355 354 353 351 348 344 340 337 336 336 334 331
346 346 347 347 347 347 347 347 347 347 348 348 348 348 348 349 352 353 353 353 354 354 352 351 354 357 359 359 358 357 356 356 357 358 358 358 359 359 359 359 358 358 357 357 356 355 354 354 354 350 345 346 346 346 346 347 347 346 344 344 347 352 355 356 357 358 358 359 359 357 356 356 355 354 352 347 343 337 332 330 329 329 328 326 326
347 347 347 347 347 347 347 347 347 348 348 348 349 349 349 349 351 352 351 352 355 355 354 352 354 356 358 361 361 360 358 358 359 359 359 360 361 360 360 360 360 359 359 359 359 358 358 359 358 354 350 350 350 350 350 350 350 349 349 348 349 353 356 357 358 359 359 358 357 356 355 355 353 350 345 337 330 328 327 327 327 326 326 326 326
347 347 347 347 347 347 348 348 348 348 349 349 349 349 350 350 351 352 352 352 354 355 355 354 355 355 358 361 363 362 359 359 360 361 361 361 361 362 362 361 361 360 360 359 359 359 359 360 359 356 353 353 352 352 352 352 352 352 352 352 352 354 357 358 359 359 358 357 356 354 354 352 347 340 332 327 326 327 327 326 326 325 325 326 327
347 348 348 348 348 348 348 348 348 348 349 350 350 349 350 352 352 351 352 353 353 354 354 355 357 358 359 362 365 364 361 361 361 361 361 362 362 362 362 362 362 362 361 360 359 359 358 358 358 356 354 354 353 353 353 354 354 354 355 355 355 356 358 359 359 359 358 356 354 353 350 345 337 329 326 327 327 327 326 325 325 325 326 327 327
349 348 348 348 348 349 350 351 351 351 350 351 354 353 350 352 354 352 352 354 356 356 355 356 360 362 361 362 365 365 364 365 365 363 362 362 362 362 362 362 362 362 361 361 360 359 358 357 356 355 355 354 354 354 354 355 355 356 357 357 358 358 358 359 360 359 357 354 352 349 341 333 328 326 327 327 326 326 325 325 325 326 327 327 327
349 349 349 350 349 349 350 351 353 355 354 353 356 359 358 356 357 356 354 356 358 359 357 357 359 362 362 363 365 365 365 367 367 365 363 361 362 362 362 363 363 362 361 361 360 359 359 357 356 355 355 354 354 354 355 355 356 357 357 358 359 359 359 359 359 359 357 354 350 341 331 327 327 327 326 327 326 325 324 324 325 327 327 327 326
350 350 353 355 354 352 352 352 354 359 361 358 357 361 363 362 361 361 360 358 357 359 361 361 360 361 362 363 364 365 365 366 365 362 360 360 361 362 362 362 363 362 362 361 360 359 358 357 356 355 355 354 355 354 355 356 357 357 358 359 359 359 359 360 359 358 357 352 342 332 327 326 327 326 326 326 325 323 324 325 327 327 326 326 326
352 357 360 362 361 358 357 358 358 360 363 364 362 359 359 361 362 363 363 362 359 358 361 362 364 365 365 365 364 363 364 366 364 360 359 360 361 361 362 362 362 362 362 361 360 358 357 357 356 355 355 355 355 354 355 356 357 358 359 359 359 359 360 360 357 355 350 342 333 328 327 326 326 325 325 324 323 324 325 326 326 326 326 326 326
352 359 362 362 363 363 362 362 363 361 361 366 368 364 359 358 359 360 361 361 358 358 358 359 361 363 364 364 364 363 362 362 362 361 361 361 361 361 361 361 361 361 361 360 359 358 357 356 355 355 355 356 355 354 355 355 356 358 358 359 360 359 357 355 350 344 337 331 327 326 326 325 325 324 323 323 324 325 325 326 326 326 325 326 325
357 358 358 355 358 362 363 364 366 364 362 363 365 365 360 357 358 358 358 359 358 357 357 356 357 358 359 360 362 363 361 360 360 361 361 361 361 362 361 361 361 361 360 360 359 357 357 356 356 356 355 355 355 356 354 353 355 357 358 359 359 355 349 345 339 333 328 326 326 326 325 325 324 323 323 323 324 325 325 325 325 325 325 326 326
362 361 360 357 354 358 363 366 367 366 363 360 359 360 358 356 358 357 356 356 357 357 356 356 355 356 356 356 358 359 359 358 359 361 362 362 362 362 362 362 361 361 361 360 358 357 357 357 357 357 356 356 356 356 354 352 354 357 358 357 352 345 339 335 331 327 326 326 326 325 324 323 323 323 323 324 325 325 325 325 326 325 326 327 326
362 360 361 360 358 358 362 363 361 360 359 357 355 356 356 355 356 357 355 355 356 356 356 356 355 355 355 356 356 357 358 358 359 361 362 362 362 362 363 363 362 362 361 360 359 358 358 358 358 358 357 357 356 356 354 353 354 356 354 349 342 335 331 329 327 325 326 325 325 324 323 323 323 323 324 325 326 326 326 328 327 326 324 324 324
360 359 359 360 361 362 362 359 356 353 353 352 352 353 354 354 355 355 356 355 354 355 356 356 355 355 355 355 356 357 358 359 360 361 362 363 363 363 364 364 363 363 362 361 361 360 359 359 359 358 356 355 356 357 356 356 354 351 346 339 332 329 327 326 325 325 325 324 324 323 322 322 322 323 325 326 327 328 329 329 326 323 322 322 324
356 356 356 357 359 361 361 359 358 357 355 354 355 356 357 358 358 358 359 358 356 358 360 358 356 355 356 356 356 358 359 360 361 362 362 364 364 365 365 365 364 364 364 363 362 360 359 359 359 358 357 357 357 357 355 354 350 344 337 330 327 326 325 325 325 324 324 324 323 322 322 323 323 325 327 328 327 327 328 327 324 320 318 319 322
351 353 354 355 356 357 359 359 359 360 359 359 359 360 360 360 360 361 361 360 360 361 362 360 359 359 359 358 358 359 360 362 362 363 363 364 365 365 365 365 364 364 364 363 362 361 361 360 360 360 359 359 357 354 351 347 341 334 329 326 325 325 325 324 324 323 322 322 321 321 323 325 324 326 328 329 327 327 327 326 325 323 320 319 323
348 348 350 353 354 355 356 357 357 358 359 360 360 361 361 362 362 362 362 362 362 361 360 360 361 362 361 361 361 361 362 363 363 364 364 365 365 366 365 364 363 363 363 363 361 361 362 361 361 359 357 355 353 349 343 337 330 326 325 325 324 324 323 323 323 322 322 322 321 321 323 324 323 324 327 327 326 326 325 325 326 326 325 324 324
345 344 345 348 351 352 353 354 355 356 357 358 358 359 361 362 362 362 362 362 361 360 360 361 362 362 363 363 363 363 363 364 364 365 365 365 365 364 363 363 362 361 362 362 361 360 360 360 358 356 352 348 342 337 332 328 325 325 325 324 323 323 322 322 321 321 321 323 322 322 324 324 321 321 325 326 326 326 326 325 325 325 325 325 325
345 345 342 342 346 349 349 350 352 354 355 355 356 357 358 359 361 362 361 360 360 361 361 361 361 362 363 364 364 364 364 365 365 365 365 365 365 364 364 364 363 362 363 362 360 358 358 357 355 353 348 340 333 328 326 325 324 324 324 323 322 322 322 322 321 321 322 323 323 322 322 321 320 320 324 325 324 324 325 325 325 325 325 325 325
342 345 344 342 342 346 347 349 350 350 351 353 355 356 356 357 359 359 358 358 361 363 362 362 362 362 363 364 363 363 364 364 365 366 365 365 364 364 364 362 360 359 359 359 356 354 352 349 346 341 336 330 327 326 325 324 324 323 323 322 322 322 322 322 321 322 322 322 321 321 322 322 322 324 326 324 321 323 325 326 326 327 326 326 325
338 342 344 344 344 346 348 349 348 347 347 349 351 353 355 355 355 355 355 357 361 362 362 362 363 362 362 362 362 362 363 363 363 363 364 365 362 360 358 355 351 349 349 350 349 346 340 335 331 329 326 325 325 324 323 323 323 322 321 322 323 323 322 321 320 320 321 322 323 323 324 323 322 324 325 323 323 326 327 326 325 326 326 326 325
335 339 342 343 344 345 347 347 347 347 347 347 347 347 349 351 352 353 355 357 359 360 361 362 362 361 361 361 361 360 361 360 357 355 357 360 359 356 354 351 347 343 342 341 339 335 330 327 327 326 325 324 323 323 322 322 322 321 321 323 323 323 323 322 320 319 322 325 325 324 323 324 324 325 326 325 326 327 327 326 326 326 325 325 325
334 337 340 341 342 343 344 345 345 346 346 345 345 344 344 346 348 351 354 355 356 357 357 357 357 357 356 354 353 352 352 351 349 348 350 351 351 350 347 344 341 338 336 334 331 328 327 327 327 325 323 323 322 322 322 321 321 320 321 322 322 322 324 324 323 323 325 328 327 325 324 326 327 327 327 327 326 326 326 326 326 326 325 324 324
333 336 338 339 340 341 342 343 344 343 343 343 343 343 343 343 344 347 350 351 351 351 351 349 349 349 347 345 344 344 343 343 343 343 342 341 341 341 339 336 333 331 330 329 328 327 326 326 325 323 322 322 322 321 321 321 320 320 320 320 320 321 322 323 323 323 324 325 326 327 327 327 327 327 327 326 326 325 325 325 324 324 324 324 324
332 334 336 336 337 338 339 341 341 341 341 342 342 341 341 341 343 345 347 348 346 345 345 344 344 344 344 343 341 340 340 339 339 338 335 333 332 333 332 330 328 327 326 325 324 323 323 322 322 322 322 321 321 321 320 320 320 319 319 319 319 319 319 319 319 319 319 320 322 325 326 327 326 326 326 325 324 324 323 323 323 322 322 322 322
332 333 334 335 336 336 337 338 339 339 340 341 341 340 340 341 342 343 344 345 344 343 342 342 341 341 341 341 339 338 337 337 336 334 331 329 327 327 326 325 324 323 323 322 322 322 321 321 321 321 321 321 320 320 320 320 320 319 318 318 318 318 318 318 318 318 318 318 318 320 322 323 325 325 325 325 324 324 323 323 322 322 322 321 321
331 332 333 334 335 335 336 337 338 339 340 341 341 341 341 341 341 342 342 342 341 340 340 339 338 337 336 336 335 334 333 333 331 330 328 326 325 324 323 323 323 323 322 321 321 321 321 321 321 321 321 321 320 320 320 320 319 319 319 318 318 317 318 318 317 317 318 318 317 317 318 319 322 324 325 325 324 324 323 322 322 321 321 321 320
330 331 332 334 334 335 336 337 337 338 339 339 339 339 339 339 339 338 338 338 338 337 337 336 335 334 332 331 330 330 329 329 328 327 326 325 324 324 323 323 324 324 324 323 323 324 324 325 325 326 326 325 325 325 324 323 322 321 320 320 319 318 318 318 318 318 318 318 318 319 319 320 322 323 324 324 324 323 323 322 322 321 321 321 320
328 329 331 332 333 333 334 335 336 336 336 336 336 336 335 335 335 334 334 334 334 333 333 332 331 330 329 328 328 327 327 327 327 326 326 325 325 324 323 322 322 323 325 325 326 326 326 326 326 326 326 326 326 326 325 325 325 324 323 323 322 322 321 321 321 320 320 320 320 321 321 322 323 323 323 324 323 323 323 322 322 321 321 320 320
325 327 328 329 330 330 330 331 332 332 332 332 331 331 331 331 330 330 329 329 329 329 329 328 328 327 326 326 326 326 326 326 325 325 325 324 324 323 322 322 322 323 325 326 326 327 327 327 327 326 326 326 326 325 325 325 325 324 324 324 324 324 324 324 323 323 323 323 323 322 322 322 322 322 323 323 323 322 322 322 321 321 320 320 319
Wind_Speed
43 43 42 41 39 38 37 35 34 32 31 31 32 32 32 31 31 30 29 29 28 27 26 25 25 24 24 23 22 22 22 21 21 20 19 19 19 19 19 18 17 17 16 14 14 14 14 13 13 12 12 11 11 11 11 12 11 12 12 12 12 12 13 13 15 18 17 15 16 16 16 17 18 18 18 19 20 21 22 23 23 24 25 26 27
44 44 42 42 41 39 38 36 35 33 32 31 31 31 31 31 31 30 30 29 29 28 26 25 26 25 25 24 24 23 23 22 21 21 21 21 21 21 21 21 20 19 18 17 16 15 15 15 14 13 13 13 13 12 13 13 12 12 12 13 13 12 14 14 14 17 20 19 19 19 19 20 20 20 20 21 21 22 24 25 26 27 27 28 29
43 44 43 43 42 40 39 38 36 34 33 32 31 30 30 30 30 30 29 29 29 28 27 26 26 26 26 26 25 24 24 23 22 21 22 22 22 22 22 22 21 20 19 19 17 16 16 15 14 14 14 15 14 13 14 14 14 14 14 14 15 14 15 17 16 17 20 21 21 21 21 22 23 23 23 24 25 25 25 26 26 28 29 30 30
41 44 44 43 42 41 40 39 37 36 34 34 32 31 29 29 29 29 29 29 29 28 27 27 27 27 27 27 27 26 25 24 22 22 22 22 23 23 23 23 22 21 20 20 18 16 16 16 15 14 16 17 16 14 15 16 16 16 16 16 17 17 17 18 19 19 20 22 23 23 23 24 25 25 26 27 28 29 29 29 29 29 30 31 33
40 43 44 43 42 42 41 40 39 37 36 35 34 32 30 29 29 29 28 28 28 28 28 28 28 29 29 28 28 27 26 25 24 23 23 23 23 23 23 23 23 22 21 20 20 18 18 17 16 16 17 18 17 16 16 16 16 16 17 17 18 18 18 19 20 21 22 24 24 24 25 26 27 27 27 29 30 31 32 33 33 33 34 34 35
39 41 43 43 43 42 42 41 40 39 38 36 35 33 31 30 29 29 28 28 28 28 29 29 29 29 29 29 28 28 27 26 25 24 24 24 24 23 23 24 23 22 21 21 21 20 20 19 18 18 19 19 19 18 18 17 17 17 17 18 18 19 20 20 21 22 24 26 27 27 28 29 30 31 30 30 32 33 35 35 36 36 36 35 35
39 40 42 43 43 42 42 42 41 40 39 37 36 34 33 31 30 30 29 28 28 29 29 30 30 30 29 29 29 29 28 27 27 26 26 26 26 25 24 24 24 24 23 22 22 22 21 20 20 20 20 20 20 20 20 19 19 19 19 20 20 20 21 22 22 23 24 25 27 29 30 31 32 33 33 33 34 35 35 36 37 37 36 36 35
40 42 43 43 43 43 43 42 42 41 40 39 37 35 34 33 32 32 30 29 28 29 30 30 30 30 30 30 30 29 29 29 28 28 28 28 28 28 26 26 26 26 25 24 23 23 22 21 21 21 21 21 21 21 21 21 21 21 21 21 22 22 22 23 23 23 23 24 26 28 30 32 33 34 34 34 35 36 35 35 37 37 35 33 34
40 41 43 45 44 43 43 43 42 41 40 39 38 37 36 35 34 33 32 30 29 29 29 30 31 31 31 30 30 30 30 30 30 30 30 30 30 30 29 28 28 28 27 26 25 24 23 23 23 24 24 23 22 22 22 21 21 22 22 23 23 23 23 24 24 25 24 23 24 27 29 30 32 34 34 30 27 28 29 30 30 29 28 26 28
41 42 44 46 45 44 43 43 42 42 41 40 39 38 37 36 35 35 34 32 30 30 30 30 30 31 31 31 31 31 31 31 31 30 30 30 30 30 31 31 30 29 29 28 27 26 26 26 26 26 26 25 24 23 23 23 22 22 23 24 24 23 23 23 24 25 24 23 24 24 24 25 28 31 29 23 18 20 22 23 23 24 24 25 28
43 45 45 45 45 45 44 43 42 42 42 41 40 38 37 37 36 36 35 33 32 32 31 32 31 31 31 32 32 32 32 33 32 31 30 30 30 31 31 31 31 31 30 29 29 29 28 28 28 27 27 26 26 25 25 24 23 23 24 25 25 24 24 23 23 24 24 25 24 22 21 23 25 27 26 19 17 20 22 22 25 26 24 26 29
44 46 46 45 45 45 43 43 42 43 43 42 41 39 38 37 37 37 36 35 34 34 33 33 33 32 32 32 33 33 33 33 32 31 30 30 30 30 31 32 32 32 32 31 30 30 30 29 28 28 28 28 27 27 27 26 25 24 25 26 26 26 25 25 26 26 27 27 27 23 20 20 23 27 25 18 18 24 25 23 24 26 24 24 26
42 45 46 45 45 43 42 42 42 43 43 42 41 39 38 38 38 38 37 36 35 35 35 34 34 34 34 34 33 33 33 33 33 31 30 30 30 30 31 32 33 33 33 32 32 31 31 30 29 29 29 29 28 28 27 27 26 25 26 27 27 27 27 27 28 28 29 30 31 27 20 19 24 29 27 20 20 26 26 23 21 23 26 27 28
40 44 46 45 44 42 41 42 42 42 42 41 41 40 39 39 39 38 37 37 37 36 36 36 36 35 35 34 34 34 33 34 34 32 30 30 30 30 31 32 33 34 34 34 33 33 32 31 30 30 29 29 29 29 28 28 27 26 26 28 28 28 28 28 29 30 30 31 32 30 25 22 25 29 28 23 22 24 25 26 25 27 31 33 34
38 43 44 43 42 41 40 41 41 41 41 41 40 40 40 40 39 38 38 38 38 37 36 36 36 35 35 35 35 35 34 35 36 34 32 31 31 31 32 33 34 35 35 35 35 34 33 32 31 31 30 30 30 30 30 29 26 23 23 25 27 27 27 28 28 30 30 30 30 29 26 23 23 25 26 24 21 21 24 27 30 32 35 36 35
39 42 43 41 41 40 40 40 41 41 40 40 40 41 41 40 40 39 39 38 38 37 36 35 35 35 35 35 34 34 34 35 36 35 33 32 32 32 32 34 35 36 36 36 35 35 34 33 32 31 31 31 31 30 30 29 26 23 21 22 23 23 23 24 25 26 27 27 27 26 23 22 24 25 25 24 22 22 24 27 29 29 31 34 35
41 43 42 40 39 39 38 38 39 39 40 40 41 41 40 40 39 39 38 38 37 37 36 35 35 35 35 35 34 34 34 34 35 34 33 32 32 32 34 34 35 36 36 36 35 35 35 34 33 32 32 32 32 32 31 29 26 25 23 23 22 21 19 19 20 22 24 24 24 23 22 24 27 26 24 23 22 21 23 25 26 24 22 26 31
44 43 40 37 36 37 36 37 37 38 39 41 41 40 40 39 38 37 37 36 36 36 35 35 35 35 35 35 35 34 34 34 34 34 32 32 32 32 33 34 34 35 35 35 36 36 36 36 34 33 33 33 33 33 31 28 27 26 25 24 23 20 17 17 17 18 20 20 20 21 23 26 27 25 22 21 20 19 21 24 24 22 20 20 24
42 40 38 35 35 35 35 36 36 37 39 40 39 39 38 37 36 36 35 35 35 35 35 35 35 35 35 35 35 34 33 33 34 33 32 31 31 31 32 32 33 34 34 35 36 36 37 37 36 35 34 34 34 33 30 27 27 28 26 24 22 19 16 16 16 16 17 16 17 21 26 28 26 24 22 20 19 18 19 22 23 22 20 18 19
38 37 35 34 34 34 34 34 35 35 37 37 37 37 37 36 36 35 35 34 34 34 35 35 35 35 34 34 34 34 33 33 34 33 32 31 31 30 31 32 32 33 34 34 35 36 36 37 38 37 36 34 34 32 29 27 28 28 27 26 23 18 15 16 17 17 17 17 19 23 26 26 24 21 18 16 17 18 19 19 20 19 17 17 18
37 35 34 33 32 32 32 32 33 34 34 34 34 35 35 35 35 35 34 33 33 34 34 33 32 32 31 31 31 31 32 32 33 33 32 31 31 30 31 32 33 33 34 33 33 34 35 36 37 37 35 33 30 29 27 27 28 28 29 31 28 21 17 17 18 18 19 20 20 21 22 22 19 16 12 11 13 16 17 17 18 17 16 17 20
36 34 32 32 31 30 31 31 31 32 32 31 32 33 33 33 33 33 33 32 32 33 33 31 29 27 26 28 29 30 31 31 31 32 31 30 30 30 31 32 32 32 33 33 32 32 32 32 32 34 33 28 25 26 27 27 29 30 32 33 31 26 21 19 18 19 20 20 19 19 20 19 16 12 10 8 9 12 14 15 16 17 18 20 22
34 31 30 30 30 30 31 31 30 30 30 30 30 32 32 32 32 32 32 31 31 31 31 30 29 27 26 27 28 29 30 30 29 29 29 28 28 29 29 29 30 30 31 31 29 27 26 24 24 27 28 24 23 26 27 27 29 31 32 32 30 26 22 20 19 20 22 22 21 21 19 15 11 9 8 9 11 14 16 17 18 20 22 25 26
31 30 30 30 31 31 30 29 29 29 29 30 30 30 31 31 32 32 31 30 30 29 29 29 29 28 27 26 25 26 28 28 28 28 27 26 26 27 26 26 27 28 29 28 25 21 20 19 20 23 24 23 23 25 27 28 30 30 30 30 29 26 23 21 21 21 22 22 21 19 14 9 7 7 9 12 15 18 19 20 22 24 26 27 26
31 30 30 30 30 30 29 28 27 27 28 28 27 28 29 29 30 31 30 30 30 29 29 29 28 28 27 24 23 25 26 26 26 26 25 25 25 25 25 25 26 27 28 28 26 22 21 20 21 22 22 22 23 24 26 28 29 28 28 28 28 26 24 22 22 22 22 21 18 13 9 6 7 9 12 15 16 18 20 22 25 26 27 25 21
31 29 28 29 28 28 28 26 25 25 26 26 25 25 26 27 29 29 29 29 29 29 28 28 27 27 26 23 22 23 25 25 26 26 25 24 25 25 25 25 26 27 27 28 28 27 25 24 23 23 22 21 22 24 25 26 26 26 27 27 26 25 23 21 19 18 17 15 11 8 7 8 10 13 15 16 17 19 22 23 25 25 24 21 16
28 27 27 27 26 27 27 26 25 24 24 25 24 23 24 25 26 27 28 28 28 29 29 28 26 25 25 24 22 22 24 22 22 24 26 25 25 25 25 26 26 27 28 28 28 27 27 26 25 23 22 22 23 24 24 25 25 26 26 25 25 24 23 21 19 17 15 13 10 9 10 11 13 15 15 17 19 21 23 24 23 21 19 17 15
26 25 26 26 25 26 26 25 24 23 23 24 24 23 24 26 27 28 28 28 28 29 28 29 28 27 25 24 23 23 24 21 20 22 25 25 24 24 25 26 27 28 29 29 27 27 27 26 25 25 25 25 24 24 24 25 25 25 24 24 23 23 22 23 23 22 20 18 15 13 12 13 14 15 15 17 19 21 23 22 19 16 15 14 15
24 23 22 22 22 23 24 24 23 22 21 23 25 25 24 26 27 27 28 28 29 29 27 27 28 27 26 24 24 24 24 23 22 23 23 22 22 22 23 25 26 28 28 27 26 27 28 27 26 26 27 26 24 24 25 26 25 24 23 23 22 22 23 23 23 22 22 20 18 15 14 14 15 15 15 17 20 21 20 18 16 14 13 13 14
22 19 17 17 17 19 21 21 21 22 20 20 23 27 28 28 28 28 27 28 30 29 27 26 25 24 23 24 24 25 24 22 23 22 20 18 18 19 21 22 23 24 24 24 25 26 28 27 25 25 26 25 22 20 22 25 25 24 23 23 22 22 23 22 21 21 20 18 16 15 14 14 15 16 17 18 19 18 16 15 14 13 12 11 12
21 19 18 18 17 17 19 19 19 23 23 19 19 25 29 29 29 30 29 30 30 29 28 28 27 25 25 24 22 22 23 23 23 21 19 18 17 17 19 20 21 22 22 23 25 26 25 24 21 20 21 21 19 18 19 21 23 24 23 23 22 21 20 19 18 17 16 15 14 15 14 14 16 17 17 16 15 14 13 13 11 10 10 10 11
18 18 20 22 21 17 16 17 18 21 24 24 24 26 29 29 29 30 31 31 31 30 30 29 28 28 28 27 25 23 23 23 21 20 19 18 17 17 19 20 22 23 22 23 24 24 21 19 17 16 17 18 19 19 18 18 22 25 24 22 21 20 18 16 15 15 14 14 15 14 14 15 16 16 14 12 11 10 10 9 7 8 9 9 11
14 14 15 19 21 19 15 14 15 16 19 23 27 27 27 26 26 28 30 31 31 32 31 31 30 28 28 29 28 26 25 23 21 19 18 19 18 19 20 21 22 23 24 24 24 22 19 17 17 16 17 18 18 17 17 18 22 25 22 20 20 19 17 15 15 15 15 15 14 14 15 15 14 12 10 9 7 7 6 6 6 7 7 8 9
12 14 15 15 17 19 18 16 17 18 18 21 24 24 24 24 24 25 27 28 29 30 30 30 29 28 28 29 28 27 26 25 22 20 19 20 20 20 21 21 22 24 25 25 24 22 20 19 20 18 16 18 20 21 22 23 23 22 21 21 20 18 16 15 16 16 15 14 14 14 14 12 10 9 7 6 5 5 4 3 4 5 6 6 8
10 13 15 13 12 13 14 15 17 19 20 21 22 22 23 23 23 24 24 25 26 26 25 26 27 27 28 28 28 27 26 25 23 22 20 21 22 22 22 22 23 24 26 26 26 25 22 22 24 22 19 21 25 27 25 23 21 22 23 22 20 18 17 16 16 16 15 14 13 13 11 10 9 7 6 6 5 3 2 2 3 4 4 5 6
6 5 7 9 8 7 8 9 10 12 14 15 16 17 17 18 19 19 19 20 19 17 17 21 23 23 24 26 27 26 25 24 23 22 22 22 23 23 23 23 24 25 27 27 28 28 26 26 28 27 25 25 25 23 21 20 21 22 22 20 18 18 18 18 17 16 15 13 12 11 9 8 8 7 6 5 4 2 2 1 0 3 5 6 6
7 5 4 6 7 7 8 9 11 12 12 11 11 11 11 12 13 12 12 13 12 12 15 20 18 16 19 23 24 24 23 22 22 22 23 24 24 24 23 24 25 27 29 29 30 32 31 31 29 27 25 24 22 21 21 22 22 23 22 21 19 18 18 18 17 15 13 12 11 10 9 9 9 9 7 5 4 3 2 2 2 3 6 9 8
5 5 8 10 9 8 8 9 12 13 11 8 8 9 8 8 9 9 11 13 13 12 15 16 14 14 18 20 20 20 21 21 22 23 24 26 26 25 24 24 25 25 26 28 30 31 31 29 26 22 20 21 23 24 24 24 25 25 23 20 19 18 18 16 14 13 12 12 11 11 11 10 10 9 7 5 4 4 3 2 2 3 5 6 6
2 1 6 9 10 9 7 7 9 10 8 7 8 9 9 9 9 9 10 13 14 14 13 12 12 15 18 18 17 18 20 21 23 25 27 28 28 26 25 25 24 23 22 24 27 29 28 26 24 21 20 22 24 24 23 24 25 24 21 20 19 18 16 14 14 13 13 13 13 12 12 11 10 9 7 6 5 4 3 3 2 2 2 2 3
2 2 2 5 6 6 6 6 6 6 6 6 8 8 8 10 10 8 8 11 13 14 15 15 16 18 17 15 14 17 20 23 25 27 27 27 26 25 25 26 26 25 24 26 27 27 27 27 25 24 23 24 24 24 24 25 24 23 21 20 19 17 16 16 16 16 15 15 14 13 12 11 9 7 6 6 6 5 4 4 4 3 3 3 3
2 2 3 2 2 2 3 3 4 5 5 7 8 8 9 11 12 10 9 11 14 16 17 18 18 17 14 13 13 16 18 21 24 25 25 25 24 25 26 26 26 25 25 25 24 23 24 25 25 25 25 25 25 25 25 25 23 22 20 19 18 18 19 19 18 17 17 16 14 12 11 10 8 7 6 7 6 4 4 5 5 5 5 4 4
3 3 3 3 1 1 1 1 2 3 3 4 7 9 10 11 11 10 10 13 17 18 18 16 15 14 13 13 14 15 17 20 22 23 23 24 26 26 26 24 21 21 23 24 24 24 25 26 26 26 26 26 26 26 25 24 22 20 19 19 19 20 20 21 21 19 17 15 13 12 11 9 8 7 6 6 4 4 6 6 6 5 6 6 5
5 5 5 4 3 3 2 1 1 2 3 4 7 10 11 10 10 11 13 16 18 18 17 16 15 14 14 14 15 16 18 21 23 23 23 25 27 27 26 25 25 27 29 30 30 30 30 30 29 28 28 28 28 27 26 24 23 21 20 19 20 20 19 19 19 18 14 12 11 11 10 8 6 5 5 6 5 5 7 7 6 6 6 6 7
5 7 8 5 4 4 4 2 2 5 9 9 8 8 9 10 11 13 15 17 17 16 16 15 15 15 14 14 14 15 17 19 20 21 23 25 26 25 25 27 30 32 32 31 31 30 29 28 27 28 28 27 26 24 22 21 22 22 23 23 23 22 19 17 16 15 13 11 10 9 8 6 5 5 6 7 7 7 7 7 7 7 7 7 7
3 5 6 6 4 4 4 3 3 5 7 8 8 8 8 9 11 12 13 14 14 14 15 15 15 15 16 15 15 15 16 17 19 21 23 25 26 27 28 29 31 31 31 30 30 28 27 25 25 25 25 23 21 19 18 18 20 22 23 24 25 24 21 19 18 17 15 13 10 8 7 7 7 7 8 9 9 9 9 8 8 8 8 8 7
6 2 3 4 5 5 5 5 5 6 6 7 7 7 7 8 9 11 12 12 12 13 14 15 15 16 16 17 18 19 19 21 24 26 27 26 26 27 28 29 29 29 29 28 27 26 25 25 25 24 23 21 19 19 19 19 20 21 22 22 22 22 21 19 18 17 16 15 13 10 8 8 8 9 10 11 10 10 10 10 9 9 9 9 9
10 8 8 7 8 8 8 8 8 8 8 7 7 6 6 7 8 10 11 11 12 13 14 15 15 16 17 18 20 23 25 26 28 29 29 28 28 28 28 28 27 27 26 26 25 24 24 24 23 22 21 20 19 19 19 20 20 21 22 22 21 21 20 20 19 18 18 17 16 14 13 11 10 10 12 13 12 11 11 12 12 11 10 10 10
9 9 9 8 8 8 8 7 7 7 7 7 7 7 7 7 8 9 11 12 13 13 14 15 16 17 18 19 20 21 23 25 25 26 27 27 28 29 28 26 25 25 24 23 23 22 21 20 19 18 17 17 16 16 16 16 17 19 20 21 22 22 22 21 21 20 19 19 18 18 17 16 13 12 12 13 14 14 14 14 13 13 12 12 12
6 6 6 6 7 7 8 8 8 8 8 8 8 8 8 9 10 11 12 14 15 16 16 17 18 18 19 20 20 20 20 20 20 21 22 22 22 22 21 21 20 20 20 20 19 17 16 15 14 14 13 13 13 13 14 14 15 16 18 19 20 21 21 21 21 21 20 20 19 18 17 16 14 13 13 14 15 16 16 15 15 15 15 14 14
5 5 5 5 6 8 9 10 10 10 10 10 10 10 11 12 13 15 16 18 19 20 20 20 20 20 20 20 20 20 20 20 20 20 20 19 17 16 16 16 15 14 13 13 12 11 10 10 10 10 10 11 11 12 13 14 15 15 16 17 18 18 19 20 20 20 20 20 19 19 18 15 13 12 13 15 16 16 16 16 17 16 15 16 16
4 4 4 4 6 7 8 9 10 11 12 12 13 13 14 15 17 18 20 21 21 22 22 22 21 21 21 21 21 21 21 21 21 20 19 18 17 17 17 16 16 14 13 12 11 11 10 10 10 10 10 10 11 11 11 11 11 12 13 14 14 15 16 17 18 19 19 19 20 20 20 19 17 17 18 19 19 19 19 19 19 18 17 16 16
Wind_Direction
214 215 215 216 219 220 222 223 224 225 226 225 224 226 228 229 230 231 230 230 230 229 228 228 230 231 231 231 231 233 234 234 236 239 239 239 239 240 240 240 241 246 250 251 251 255 255 254 254 256 255 255 258 262 266 271 275 275 276 278 279 281 285 285 288 296 299 298 299 300 297 293 290 288 285 283 285 286 283 281 280 280 280 281 282
214 215 215 216 218 219 220 221 222 223 224 225 224 224 226 227 229 230 231 230 229 228 227 227 228 229 230 231 231 232 234 235 235 237 239 240 241 241 243 243 243 247 253 257 258 260 261 259 258 259 258 258 258 261 265 266 268 271 273 278 280 279 284 288 288 293 298 299 299 300 299 297 295 292 289 287 287 287 287 287 286 285 284 284 284
213 215 215 216 217 218 219 220 220 220 222 224 224 224 225 227 227 228 229 229 229 227 225 225 226 227 229 230 230 231 234 235 235 236 238 241 241 241 242 244 247 249 253 258 261 262 262 261 259 259 262 262 259 258 261 262 262 263 265 272 279 279 282 287 287 287 292 295 295 296 296 296 295 294 293 292 291 290 289 289 289 290 290 290 290
210 216 216 215 216 217 218 219 220 219 220 222 222 223 224 226 227 226 225 227 229 226 223 223 226 227 228 230 230 231 233 234 235 236 238 240 241 240 241 243 246 249 252 255 257 257 257 258 258 258 261 264 264 261 261 264 264 266 268 270 274 277 279 282 285 285 286 288 289 291 291 290 290 291 292 292 292 292 292 291 291 291 292 293 293
207 214 218 217 216 217 217 218 219 219 219 220 221 222 222 224 227 227 224 225 227 226 223 222 225 228 228 230 231 232 233 234 235 236 238 240 240 240 241 242 245 248 250 251 254 254 254 256 257 259 262 265 267 266 266 267 266 267 271 273 275 278 278 279 282 284 285 285 287 288 288 288 288 288 289 290 292 292 292 293 294 295 296 295 294
203 210 217 218 217 217 216 217 218 218 218 219 221 222 221 222 225 227 224 223 224 226 225 223 224 228 230 231 232 233 234 234 235 236 238 240 241 240 241 242 244 246 247 249 253 256 256 257 259 260 262 264 267 269 271 271 270 270 272 274 277 279 280 280 281 282 284 285 286 287 287 287 288 288 289 291 292 293 294 296 297 297 296 295 294
200 206 214 217 217 217 216 216 216 217 218 218 220 221 221 220 223 225 225 223 222 225 227 227 226 227 230 231 233 234 235 236 238 239 238 239 241 240 240 241 243 245 247 250 253 256 257 257 258 259 260 262 265 269 272 274 274 275 276 277 278 278 279 281 281 281 281 281 282 284 285 286 287 290 293 294 294 295 297 299 299 298 298 298 297
199 205 213 216 217 217 216 216 216 216 217 218 219 220 220 220 221 225 227 225 222 223 227 230 230 230 230 232 233 234 236 238 240 240 239 238 238 240 240 241 242 245 249 252 252 253 255 256 259 260 261 263 265 268 272 274 275 276 276 277 278 278 279 279 278 277 276 276 279 281 284 286 287 290 292 294 296 298 300 302 302 300 301 301 299
198 204 211 217 218 217 216 216 216 216 216 217 218 220 221 221 223 226 228 226 224 223 225 229 232 233 232 232 233 235 237 239 241 240 239 237 237 239 241 241 242 245 249 252 252 252 253 255 259 261 263 264 265 266 269 270 270 272 274 275 276 276 276 277 277 276 273 273 276 280 284 286 289 291 291 293 295 296 299 303 302 299 300 298 296
199 204 212 217 219 218 217 217 216 215 216 217 218 219 222 224 225 227 229 228 226 224 224 226 230 233 234 234 234 235 237 240 241 241 240 239 238 238 241 242 244 245 247 250 251 252 255 257 259 261 263 264 265 265 267 267 266 267 268 270 271 271 272 274 275 275 274 273 275 277 279 282 286 289 288 291 293 292 296 301 298 297 299 299 300
204 210 215 217 218 219 218 217 216 216 216 217 218 219 221 224 227 228 229 228 227 226 226 226 228 231 234 235 235 236 239 241 243 242 241 240 239 239 241 243 245 246 247 249 250 253 256 258 260 261 262 263 264 265 267 267 266 265 264 264 264 265 266 267 269 272 273 273 273 271 271 277 284 287 287 291 294 291 292 294 293 296 300 301 302
207 213 214 216 218 220 218 217 216 217 217 218 218 219 220 223 226 228 228 228 228 228 228 228 228 229 232 235 236 236 239 241 243 243 242 241 240 240 241 244 246 247 248 249 251 253 256 257 259 261 262 263 264 265 266 266 265 264 264 263 262 262 261 261 263 266 268 270 271 269 269 274 280 284 287 292 292 291 292 292 295 300 298 295 296
206 212 214 216 220 221 219 218 217 218 218 218 219 219 220 222 224 226 227 228 229 230 230 230 231 230 232 235 236 237 238 240 242 241 241 241 240 240 241 243 245 248 249 251 252 254 255 256 257 258 261 262 264 265 266 267 266 264 263 263 263 262 261 260 260 262 263 265 267 267 267 270 278 285 290 291 290 293 296 295 296 297 294 291 293
204 212 215 218 221 222 220 219 219 219 219 219 219 219 219 221 223 225 228 230 231 231 232 233 234 233 234 236 237 237 238 240 241 240 239 239 239 238 239 241 244 247 250 252 253 254 255 256 256 257 259 261 263 265 265 266 267 267 266 264 263 262 261 260 259 260 261 263 265 268 270 274 281 287 289 290 292 295 296 296 296 295 295 296 298
203 213 217 220 221 221 221 221 220 220 221 220 220 219 220 221 222 224 227 230 232 233 234 236 237 237 237 238 239 239 239 240 241 240 238 237 237 237 238 240 243 245 248 251 253 254 255 256 256 257 258 259 262 264 265 266 266 266 265 265 265 264 263 261 260 259 260 261 265 269 273 279 282 282 284 290 297 297 294 295 296 298 301 303 305
204 214 219 221 221 221 221 220 221 221 221 221 221 221 221 222 223 224 227 230 233 235 236 236 238 239 240 240 241 242 242 242 243 242 239 238 238 239 239 240 242 244 246 249 251 253 254 255 256 257 258 259 260 262 263 264 264 262 259 259 262 263 262 262 262 262 261 260 262 267 272 278 281 282 287 294 297 295 292 293 297 302 306 306 306
209 217 221 221 220 220 220 220 220 221 221 222 222 221 222 223 223 224 227 229 233 236 237 238 239 240 241 242 243 243 244 244 244 244 242 241 240 240 241 242 243 244 245 247 250 252 253 254 254 255 256 258 259 260 260 261 259 256 253 253 256 257 259 260 263 266 265 261 260 265 270 276 280 285 292 294 294 292 291 293 300 303 301 299 301
215 220 222 220 218 219 219 219 219 219 220 221 221 222 223 223 223 224 226 228 231 235 237 239 239 240 241 243 243 244 244 246 246 245 244 243 242 242 243 244 245 246 246 247 248 250 253 253 253 253 254 256 257 258 258 257 254 250 249 250 252 253 254 255 257 264 267 264 264 268 271 274 280 288 294 292 289 288 288 292 298 299 294 294 299
217 220 220 218 217 217 218 218 219 219 220 221 221 222 223 223 224 225 226 228 230 233 236 238 240 240 241 243 244 245 245 246 248 247 245 243 243 242 244 245 246 246 247 248 248 249 251 252 253 252 252 253 254 255 255 252 247 245 246 248 250 251 252 253 255 259 263 266 270 272 271 274 282 292 293 288 286 287 289 293 296 297 295 295 299
219 219 217 215 215 216 217 218 219 220 221 222 222 223 224 224 225 226 227 228 230 232 234 237 240 241 242 244 246 246 246 247 248 247 245 243 242 242 243 245 245 245 246 247 248 249 249 250 252 252 251 251 252 252 250 245 241 241 243 245 248 249 247 247 250 252 256 262 265 265 270 279 290 296 293 291 297 300 297 297 300 302 299 297 300
218 217 215 213 213 214 216 218 219 220 222 222 223 225 226 226 228 229 230 231 232 234 234 235 237 240 242 243 244 245 246 247 248 248 246 244 242 241 242 243 244 245 246 246 247 248 249 249 251 251 251 250 249 247 243 238 236 237 240 243 245 247 246 245 248 254 262 266 265 268 278 287 291 289 288 294 302 299 295 298 303 303 297 293 294
217 215 212 210 211 213 215 217 219 221 223 223 223 225 226 227 229 230 231 231 233 235 236 235 234 234 236 238 241 243 246 247 249 248 247 245 242 240 239 240 241 242 243 245 245 246 247 249 250 251 251 247 242 238 235 232 232 234 238 242 245 249 253 255 257 262 266 266 269 278 285 286 284 282 285 285 277 274 280 289 295 295 296 299 303
215 211 207 207 208 211 214 216 218 220 221 222 223 225 226 227 227 228 230 230 231 234 237 238 236 233 233 237 241 245 247 248 248 248 246 243 240 238 237 237 238 238 239 241 242 242 244 245 245 247 246 239 229 227 228 230 232 234 238 242 245 248 254 257 259 263 265 268 277 283 283 281 281 280 275 271 272 279 289 297 303 308 311 314 316
211 206 205 204 206 210 213 215 217 219 221 223 224 225 227 228 228 230 232 231 231 233 237 239 239 236 235 236 238 243 247 248 247 245 243 241 239 237 235 234 234 234 235 236 237 237 239 240 240 241 238 230 223 223 225 228 231 234 237 241 245 248 252 255 257 261 269 275 279 281 279 276 272 267 271 282 292 300 306 310 314 316 316 318 322
208 205 205 204 206 210 213 214 216 219 221 224 224 224 226 228 229 230 232 233 232 233 236 238 240 240 239 234 233 239 246 247 246 244 240 238 238 236 233 231 230 231 232 233 232 230 230 232 235 235 231 225 222 223 225 227 231 234 236 240 243 246 250 256 260 264 270 274 273 272 272 269 268 278 290 298 304 308 310 313 317 319 321 326 334
210 207 206 206 206 208 211 214 216 218 219 223 224 224 225 227 229 230 232 233 235 235 236 237 239 239 238 232 231 238 243 245 245 243 237 232 232 232 231 228 227 228 230 231 231 229 227 228 231 232 230 226 225 226 227 228 229 232 234 236 239 241 245 254 263 266 265 262 259 260 264 269 280 291 299 304 306 308 311 316 321 324 327 333 340
213 210 208 207 206 207 209 212 213 215 217 218 220 223 225 225 227 230 231 230 232 234 235 235 234 232 233 232 231 234 237 235 237 241 239 234 231 231 231 229 226 225 226 227 227 227 228 229 231 232 230 229 231 231 231 229 230 232 232 232 234 235 237 244 255 262 259 251 252 262 269 276 287 297 305 310 311 312 315 320 325 328 330 334 338
215 213 209 206 206 206 207 209 210 210 213 214 213 217 222 221 223 228 229 228 229 231 234 236 234 233 232 232 230 230 232 231 231 238 244 242 238 236 234 231 228 226 225 225 224 225 227 227 227 228 228 229 234 237 235 233 233 233 232 232 232 232 233 238 248 257 261 263 271 281 287 290 296 304 312 313 312 312 315 319 323 327 329 332 339
213 211 207 205 206 206 206 208 208 207 210 214 213 213 215 218 221 225 229 231 232 232 233 236 238 239 237 234 232 232 235 238 241 245 250 250 246 243 239 234 230 229 228 225 223 223 224 223 222 226 227 227 230 235 237 237 237 236 236 235 234 235 238 239 240 244 253 265 276 285 290 293 297 302 305 304 304 307 310 314 318 322 324 332 344
206 201 196 199 205 206 206 206 208 208 207 211 219 221 220 222 224 225 228 233 236 235 234 234 235 235 235 235 239 241 242 245 250 254 253 251 248 246 242 236 232 229 227 223 220 221 223 223 222 224 226 225 225 227 233 237 238 238 238 239 240 242 241 234 228 232 245 257 267 272 278 284 288 290 291 296 302 305 306 309 314 319 325 337 350
201 196 195 197 200 206 208 205 208 214 211 206 217 229 229 228 231 233 235 239 241 242 241 239 237 237 237 238 242 247 249 250 252 254 252 247 243 240 238 234 229 224 219 217 218 220 221 220 219 220 223 224 221 220 226 233 237 237 238 241 243 238 229 221 222 231 242 250 255 261 268 273 277 281 286 294 299 301 303 309 316 324 333 344 351
193 197 203 202 202 211 217 207 206 216 217 211 216 228 233 234 237 238 240 243 245 246 246 246 244 243 244 244 243 245 248 248 245 244 245 242 236 231 230 228 224 219 213 212 216 220 218 215 216 216 215 216 218 220 220 224 232 237 239 239 233 223 214 216 224 230 235 241 247 254 260 267 273 280 285 290 290 290 296 304 316 329 340 345 345
179 185 197 200 203 212 218 210 207 215 220 221 224 231 237 240 242 242 243 243 245 247 249 249 247 245 243 243 243 242 243 242 238 234 235 234 229 225 224 223 220 217 212 211 215 218 215 213 214 213 213 217 219 214 211 218 231 236 232 223 215 210 210 216 220 222 229 237 243 250 258 265 271 275 275 274 272 271 279 294 315 329 341 347 342
178 186 193 194 200 211 214 214 217 221 224 228 231 234 239 241 242 245 247 247 247 248 249 249 248 245 241 240 239 238 238 238 234 230 229 227 223 221 221 221 219 217 214 212 215 217 216 218 219 216 214 215 212 210 216 227 231 224 211 204 204 205 208 212 213 219 228 233 238 248 255 259 260 257 251 246 250 261 279 302 320 332 344 349 346
172 189 195 191 193 207 212 213 220 226 228 229 231 234 238 240 240 243 247 250 251 251 251 250 246 242 238 236 235 234 234 233 229 226 224 224 222 219 219 219 219 219 217 215 216 218 218 218 217 212 207 210 217 223 229 228 216 203 198 200 201 201 203 207 211 219 225 228 234 242 244 241 238 230 220 220 225 236 269 292 322 345 358 356 355
132 153 182 186 189 201 208 209 215 221 223 225 227 229 231 234 236 237 240 246 248 246 248 250 248 240 235 233 233 232 230 228 224 220 219 220 220 220 221 222 222 223 222 218 217 217 216 216 216 216 219 225 227 224 219 210 202 199 199 199 197 198 201 206 212 218 220 222 228 229 223 220 217 205 201 218 221 204 214 227 2 22 23 26 21
108 115 153 184 195 201 206 209 213 213 213 213 220 223 223 226 229 228 230 236 234 229 237 245 246 237 230 228 229 229 226 222 219 215 215 216 217 217 220 223 225 225 223 220 220 222 222 223 225 227 232 232 222 208 200 199 199 196 194 194 195 197 201 207 212 215 213 213 215 208 198 200 202 190 185 201 201 188 212 226 251 325 357 22 29
111 161 182 181 179 182 196 212 217 214 208 206 215 221 221 222 223 219 219 222 218 218 232 239 236 230 229 226 224 223 222 218 214 212 212 213 213 214 218 225 230 233 233 233 231 228 226 226 225 223 220 213 204 199 197 195 193 191 191 192 195 199 204 209 211 206 200 197 196 192 187 189 191 181 175 185 190 187 195 201 230 283 319 358 10
61 214 191 172 159 159 178 204 211 204 195 198 213 217 218 222 222 218 216 218 217 218 226 229 227 229 229 224 219 218 217 214 212 213 213 214 214 215 220 227 233 238 241 241 235 226 221 220 215 206 199 194 191 189 188 188 191 193 192 192 196 200 202 203 199 193 187 183 182 181 179 181 183 177 171 181 194 198 208 223 236 263 288 314 331
37 328 229 180 164 167 179 184 178 171 175 192 205 212 219 224 223 221 222 222 221 222 223 224 226 228 227 222 221 220 219 217 216 215 215 216 219 222 224 225 227 228 231 234 231 220 213 211 204 195 193 192 187 184 186 190 193 194 192 193 196 195 191 190 187 182 178 177 179 180 180 183 184 178 177 194 206 208 220 239 254 270 287 301 311
13 327 291 242 186 175 172 160 153 158 171 184 194 207 221 224 220 218 225 227 225 225 226 228 231 233 232 231 231 227 224 223 223 222 221 222 223 223 222 221 219 216 215 218 217 206 198 197 193 187 187 187 184 184 189 191 191 192 193 193 191 187 184 184 181 179 179 181 182 182 184 187 187 185 199 219 227 232 245 254 260 270 280 288 295
349 346 323 300 274 235 199 175 174 171 161 172 191 202 214 222 221 221 226 229 230 231 233 234 235 237 238 241 244 241 234 228 224 223 227 227 221 215 211 209 203 194 190 193 194 190 185 184 182 180 180 182 184 186 188 188 189 192 192 189 184 182 182 183 184 184 184 183 183 185 190 196 199 203 219 237 244 247 252 257 263 270 272 276 286
335 349 339 321 309 298 275 231 135 168 178 194 206 207 209 218 225 228 230 232 234 235 236 236 237 237 238 240 244 244 238 229 217 209 209 214 213 208 205 199 191 184 183 183 182 181 180 180 181 182 184 186 186 186 186 187 188 187 185 183 180 177 179 184 189 188 183 182 191 197 200 207 218 225 238 252 254 251 255 263 270 274 274 276 282
340 348 338 322 305 284 257 227 212 208 204 207 219 224 221 223 227 231 234 235 235 236 236 235 232 229 225 220 219 221 220 217 210 201 197 199 201 200 198 193 186 182 182 180 179 180 184 187 187 187 187 188 188 188 189 192 192 188 184 182 180 177 176 179 185 186 183 185 197 205 207 217 232 239 248 260 264 265 266 267 268 271 274 277 279
328 356 339 310 283 268 250 235 230 219 209 214 229 235 228 224 226 230 235 236 232 228 223 217 212 208 202 192 190 196 196 191 189 189 189 190 190 190 188 185 182 181 180 180 181 184 187 188 187 186 186 187 188 188 190 195 199 198 195 192 190 189 189 190 193 196 196 194 197 201 209 227 241 246 252 260 267 271 271 268 267 272 276 278 278
282 274 278 273 270 270 261 249 245 241 235 238 248 249 239 232 231 230 231 230 225 218 212 206 203 203 200 191 185 186 185 181 180 183 183 181 180 181 180 180 179 179 179 179 180 182 182 183 184 185 186 187 188 189 191 195 199 202 203 203 203 204 206 207 210 212 213 212 211 210 214 230 244 252 258 264 268 268 267 267 268 270 271 274 275
275 256 249 263 283 289 278 265 259 260 258 258 264 265 256 244 237 231 226 224 220 215 211 207 201 198 198 196 192 187 184 182 183 185 182 176 171 170 171 173 175 176 175 174 174 176 178 180 182 184 186 188 191 193 195 197 199 202 205 207 209 211 213 215 218 221 224 228 230 230 231 236 244 255 267 276 277 271 267 270 274 272 270 273 274
271 259 252 263 282 284 273 263 262 264 261 258 259 261 255 245 236 227 219 214 212 209 206 203 197 190 187 188 188 187 186 184 182 180 176 171 168 167 167 167 168 170 172 173 173 174 175 177 178 181 185 189 191 195 199 202 205 208 211 213 215 218 220 223 226 229 232 236 240 242 245 248 250 253 259 264 264 262 263 268 271 270 269 270 270
272 261 254 261 267 255 240 233 236 238 235 232 232 231 227 220 215 209 205 201 198 196 193 190 187 183 179 176 175 176 179 180 179 175 171 168 168 168 168 167 166 166 167 169 169 170 173 176 180 185 190 194 198 204 209 214 218 220 222 223 225 227 228 231 234 236 238 240 244 246 250 254 257 259 260 259 260 262 264 264 264 266 267 267 268
286 269 255 253 250 237 223 217 215 210 206 204 201 199 198 195 190 187 186 184 181 178 176 174 172 171 169 168 167 169 173 177 177 175 174 174 174 173 173 173 173 171 169 167 166 167 171 179 186 192 196 201 204 207 211 218 223 229 232 235 236 238 239 241 243 245 246 247 248 249 249 252 254 254 253 252 251 254 258 258 257 258 261 263 266
284 272 257 239 226 215 208 205 202 196 189 184 180 177 177 176 174 171 169 166 163 162 161 161 162 162 163 164 166 168 171 173 172 171 171 173 174 175 175 175 177 180 184 187 189 192 194 196 198 201 203 205 208 210 214 220 226 232 239 243 246 249 250 250 251 252 252 253 253 252 253 254 254 253 252 250 247 245 245 246 245 247 252 259 264